Regional Weather Roundup
Issued by NWS Midland/Odessa, TX

Home | Current Version | Previous Version | Text Only | Print | Product List | Glossary On
Versions: 1 2 3 4 5 6 7 8 9 10 11 12 13 14 15 16 17 18 19 20 21 22 23 24 25 26 27 28 29 30 31 32 33 34 35 36 37 38 39 40 41 42 43 44 45 46 47 48 49 50
000
ASUS44 KMAF 162210
RWRMAF
MIDLAND AREA WEATHER ROUNDUP
NATIONAL WEATHER SERVICE MIDLAND TX
400 PM CST MON JAN 16 2017

...IN SOUTHWEST TEXAS AND SOUTHEAST NEW MEXICO...

CITY           SKY/WX    TMP DP  RH WIND       PRES   REMARKS
ALPINE         SUNNY     61  30  31 SW8       30.03F
ANDREWS        FAIR      60  38  45 CALM      29.97S
ARTESIA        SUNNY     59  37  44 CALM      29.95R
BIG SPRING     SUNNY     60  42  52 SW3       30.00R
CARLSBAD       CLOUDY    61  38  42 E8        29.93S
DRYDEN           N/A     68  34  28 SE5       29.93F
FORT STOCKTON  SUNNY     67  29  24 S6        29.95F
GUAD PASS      MOSUNNY   52  34  50 W21G29    30.00S
HOBBS          MOSUNNY   59  36  41 S7        29.97R
MARFA          NOT AVBL
MIDLAND AIRPK  SUNNY     64  39  40 W7        29.97S
MIDLAND INTL   SUNNY     63  36  36 W13       29.96S
ODESSA         SUNNY     62  35  36 W8        29.96F
PECOS          SUNNY     64  35  34 NW8       29.95S
PRESIDIO       FAIR      65  32  28 CALM      29.93F
SEMINOLE       MOSUNNY   60  40  47 W5        29.97S
SNYDER         SUNNY     58  42  53 W5        29.99R
WINK           SUNNY     63  36  36 W9        29.93F
$$
...OTHER STATIONS IN TEXAS...

CITY           SKY/WX    TMP DP  RH WIND       PRES   REMARKS
ABILENE        SUNNY     62  45  53 VRB3      29.98F
AMARILLO       CLOUDY    41  34  76 NW16G25   30.00R WCI  33
AUSTIN         CLOUDY    70  49  47 N6        29.95R
BROWNSVILLE    PTSUNNY   79  68  69 S21       29.90R
CORPUS CHRISTI CLOUDY    75  68  78 S24       29.89S
DALLAS FTW     MOSUNNY   66  47  50 W10       29.97S
DEL RIO        CLOUDY    69  38  32 CALM      29.94R
EL PASO        MOSUNNY   55  34  45 SW12      29.97S
HOUSTON INT    CLOUDY    78  63  59 S14       29.95S
LUBBOCK        MOSUNNY   56  39  53 NW9       29.97S
SAN ANGELO     SUNNY     70  38  31 MISG      29.96S
SAN ANTONIO    CLOUDY    69  53  56 NE7       29.94R
WACO           PTSUNNY   70  47  43 N6        29.96R
WICHITA FALLS  NOT AVBL
$$
...OTHER LOCATIONS IN NEW MEXICO...

CITY           SKY/WX    TMP DP  RH WIND       PRES   REMARKS
ALAMAGORDO     SUNNY     54  34  47 W5        29.99S
ALBUQUERQUE    PTSUNNY   47  35  63 CALM      29.97S
CANNON AFB     CLOUDY    46  43  87 NE7       29.99R
CLOVIS         PTSUNNY   48  34  57 N9        29.99S
HOLLOMAN AFB   MOSUNNY   54  37  52 W3        30.02R
ROSWELL        SUNNY     59  35  40 NE6       29.95R
RUIDOSO        CLOUDY    39  28  65 NW8       30.02R WCI  34
SANTA FE       CLOUDY    42  35  76 SW8       29.96S WCI  37
TRUTH OR CONSE PTSUNNY   52  38  58 SE8       29.96S
TUCUMCARI      SUNNY     48  34  58 W3        29.99R
$$



USA.gov is the U.S. government's official web portal to all federal, state and local government web resources and services.